Temperature
28 29 29 28 28 28 29 29 29 29 30 30 29 29 27 26 25 24 22 22 21 20 19 19 18 18 18 18 18 18 18 17 17 17 17 17 17 17 16 16 16 16 16 16
27 28 28 28 29 29 29 29 29 30 30 30 28 27 26 25 24 23 22 21 20 19 19 19 18 18 18 18 17 17 17 17 17 17 16 16 16 16 16 16 16 16 16 16
27 27 27 27 28 29 29 29 29 29 29 29 27 27 25 24 24 23 22 21 20 19 19 18 18 18 18 17 17 17 17 16 16 16 16 16 16 16 16 16 16 15 15 15
27 26 25 28 29 29 29 29 29 29 29 28 27 25 24 23 23 22 21 20 19 19 18 18 18 18 17 17 17 16 16 16 16 16 16 16 15 16 15 15 15 15 15 15
26 26 26 27 27 28 28 28 28 28 27 26 24 24 23 22 21 21 20 19 18 18 18 18 17 17 17 17 16 16 16 16 16 16 15 15 15 15 15 15 15 14 14 14
25 25 25 27 27 26 27 27 26 26 25 24 24 26 25 20 20 19 19 18 18 18 18 17 17 17 17 16 16 16 16 16 16 15 15 15 15 15 15 14 14 14 14 14
25 25 26 26 25 25 26 26 24 24 23 23 24 24 21 19 18 18 17 17 17 17 17 17 17 17 17 16 16 16 16 15 15 15 15 15 15 14 14 14 14 13 13 13
25 25 25 24 25 25 24 22 22 22 22 21 20 19 18 18 17 17 16 16 16 16 16 16 16 16 16 16 16 15 15 15 15 15 14 14 14 14 14 13 13 13 12 12
25 24 22 22 22 21 20 21 21 21 21 20 19 18 17 16 16 16 16 16 16 16 16 16 16 16 16 15 15 15 15 14 14 14 14 14 13 13 13 13 12 12 12 11
22 22 21 20 20 19 19 20 20 20 19 19 18 17 16 16 15 15 15 15 15 15 15 15 15 15 15 15 15 15 14 14 13 13 13 13 13 12 12 12 12 12 12 11
21 21 20 20 19 19 18 18 18 19 18 18 17 17 16 15 15 15 15 15 15 15 15 14 14 15 14 14 14 14 13 13 13 13 12 12 12 12 12 12 12 11 11 11
21 20 20 19 18 17 18 18 18 18 17 17 17 16 15 15 15 14 14 14 14 14 14 14 14 14 14 14 14 13 13 13 12 12 12 12 12 12 11 11 11 11 11 10
18 17 17 16 16 16 17 16 16 16 16 16 16 15 15 15 14 14 14 14 14 14 14 14 13 13 13 13 13 13 13 12 12 12 11 11 11 11 11 10 10 10 10 10
15 16 16 16 16 15 15 15 15 15 15 15 15 15 14 14 14 14 13 13 13 13 13 13 13 13 13 13 12 12 12 12 12 11 11 11 11 11 11 10 10 9 9 9
15 15 15 15 15 15 15 15 15 14 14 14 14 14 14 14 13 13 13 13 13 13 13 12 12 12 12 12 12 12 12 12 11 11 11 11 11 11 10 10 10 9 9 8
15 15 15 14 14 14 14 14 14 14 14 14 13 13 13 13 13 13 12 12 12 12 12 12 12 12 12 12 12 11 11 11 11 11 11 11 11 11 10 10 10 9 9 8
15 14 14 14 14 14 14 14 14 13 13 13 13 13 13 12 12 12 12 12 12 12 12 12 12 12 12 11 11 11 11 11 11 11 11 11 10 10 10 10 10 9 8 8
14 14 14 14 14 13 13 13 13 13 13 12 12 12 12 12 12 12 11 11 11 11 11 11 11 11 11 11 11 11 11 11 11 11 10 10 10 10 10 9 9 8 8 8
13 13 13 13 13 13 13 12 12 12 12 12 12 12 12 12 11 11 11 11 11 11 11 11 11 11 11 10 11 10 10 10 10 10 10 9 9 9 9 9 9 8 8 8
12 13 13 12 12 12 12 12 11 11 11 11 11 11 11 11 11 11 11 11 11 11 11 10 10 10 10 10 10 10 10 10 10 10 9 9 9 9 9 9 8 8 8 7
12 12 12 12 12 11 11 11 11 11 11 11 11 11 10 10 10 10 10 10 10 10 10 10 10 10 10 10 10 10 10 10 10 10 9 9 9 8 8 8 8 7 7 7
11 11 11 11 11 11 11 11 11 11 11 10 10 10 10 10 10 10 10 10 10 10 10 10 10 10 10 10 10 10 10 10 9 9 9 9 8 8 8 8 7 7 7 7
10 10 10 10 10 10 10 10 10 10 10 10 10 10 10 9 9 9 9 9 9 9 9 10 10 9 9 9 10 9 9 9 9 9 8 8 8 8 8 7 7 7 7 6
10 10 10 10 10 10 10 10 10 10 9 9 9 9 9 9 9 9 9 9 9 9 9 9 9 9 9 9 9 9 9 9 9 8 8 8 8 8 7 7 7 7 6 6
9 9 9 9 9 9 9 9 9 9 9 9 9 9 9 9 9 9 9 9 8 8 8 8 8 8 8 9 8 8 8 8 8 8 8 8 8 7 7 7 7 6 6 6
9 9 9 9 9 9 9 9 9 9 9 9 9 9 9 8 8 8 8 8 8 8 8 8 8 8 8 8 8 8 8 8 8 8 8 7 7 7 7 6 6 6 6 6
8 8 8 9 9 9 9 9 9 9 9 9 8 8 8 8 8 8 8 8 8 8 8 8 8 8 8 8 8 8 7 7 7 7 7 7 7 7 6 6 6 6 6 6
Wind_Speed
10 5 10 13 16 17 18 16 13 11 11 8 7 7 6 7 9 9 9 9 9 9 8 8 7 7 6 5 5 4 4 4 4 4 3 3 3 3 3 3 4 4 4 4
12 10 10 12 14 16 17 16 15 12 10 5 5 6 7 8 10 10 10 10 10 9 9 8 7 7 6 5 5 5 5 5 4 4 4 4 4 4 5 5 5 5 5 5
12 12 11 15 15 15 15 14 13 13 9 5 6 8 8 8 9 10 10 10 10 10 9 8 7 7 7 6 6 6 6 5 5 5 5 5 5 5 6 6 6 6 6 6
10 10 14 8 6 11 12 11 10 8 5 5 5 5 5 6 8 9 10 10 10 9 9 8 8 8 8 7 7 7 6 5 5 6 6 6 6 6 6 6 6 7 7 7
10 13 11 5 6 9 11 10 8 8 6 4 5 5 5 5 6 7 9 9 9 9 9 9 8 8 8 8 8 7 7 6 5 6 7 7 7 7 6 7 7 7 7 8
10 13 11 7 7 5 7 9 5 5 6 6 7 7 6 7 7 9 9 9 9 9 9 9 8 9 9 8 8 7 7 6 6 7 7 8 7 7 7 7 8 8 8 9
13 11 6 4 5 7 9 3 2 4 5 6 5 0 6 8 8 9 10 10 10 10 9 8 8 9 9 8 7 7 7 7 7 7 8 8 8 7 7 8 9 9 10 10
12 12 7 4 5 5 1 4 1 2 4 4 4 7 8 9 9 10 11 11 11 10 9 8 8 9 9 8 7 8 8 8 8 8 7 7 8 8 8 9 9 9 9 9
5 3 4 3 2 3 3 2 1 1 3 5 7 8 9 9 9 10 11 10 10 10 10 8 7 8 9 8 8 9 9 9 9 9 8 8 8 8 8 7 7 7 7 7
2 3 2 1 1 2 2 1 0 2 4 6 7 9 10 9 9 10 10 10 10 10 10 9 8 8 9 9 9 10 10 9 9 9 9 8 6 6 6 6 6 6 6 7
4 2 2 2 2 3 2 1 2 3 5 6 8 10 10 9 9 9 9 9 9 9 9 9 8 8 8 9 10 10 10 9 9 9 10 9 10 9 8 8 6 5 6 6
3 1 1 1 3 3 1 2 3 4 6 7 8 9 10 9 9 9 9 9 9 10 10 9 9 9 8 8 10 10 9 9 8 8 8 9 10 11 18 14 16 16 14 11
2 2 2 1 2 2 1 2 3 4 6 7 8 9 10 9 9 9 10 10 10 10 10 9 9 9 8 8 9 9 10 9 8 8 8 8 9 10 10 11 16 17 16 15
1 1 1 1 1 1 3 4 5 5 6 7 8 10 10 10 10 9 9 10 10 10 10 10 9 9 8 9 9 10 10 9 8 7 8 8 8 9 9 10 10 9 11 12
3 3 2 1 2 3 4 5 6 7 7 8 8 10 11 11 10 10 10 10 11 11 10 10 9 9 8 9 10 9 9 8 7 7 7 8 8 8 9 10 9 9 9 9
2 2 3 3 4 5 6 7 7 7 8 9 9 9 10 11 11 11 10 10 11 11 10 10 9 9 8 9 10 8 7 8 7 7 8 8 8 9 9 9 9 8 7 7
4 5 5 5 6 6 6 6 6 7 8 9 10 11 12 12 12 11 11 10 10 10 10 9 9 8 8 9 9 8 9 9 7 7 8 8 8 8 8 7 7 7 7 6
5 5 5 6 6 6 7 7 7 8 9 10 11 12 12 12 12 11 11 11 11 10 9 9 9 9 9 9 8 8 9 8 7 7 8 7 8 8 8 8 8 8 7 7
4 5 5 5 6 7 7 7 8 8 9 10 11 12 12 12 12 11 11 11 11 10 8 8 8 9 9 8 7 8 9 9 9 8 8 8 7 7 7 7 7 7 6 6
3 5 6 7 8 8 8 8 9 9 10 11 12 12 12 11 11 11 11 9 7 7 9 9 9 9 9 8 5 8 9 9 9 9 8 7 7 7 7 7 7 6 6 6
5 7 9 9 9 9 9 9 10 10 10 11 12 12 12 11 10 10 10 9 7 8 9 8 7 7 8 7 5 8 8 8 8 8 7 7 7 6 6 6 6 5 5 5
5 7 9 10 10 10 9 9 10 11 12 11 12 12 12 11 11 9 9 7 8 6 7 7 7 8 6 6 7 8 8 8 7 7 6 6 6 6 5 5 5 5 4 4
6 8 9 10 11 10 10 10 11 12 12 12 12 12 11 9 8 9 9 7 8 6 6 7 9 9 5 5 7 8 8 8 7 7 6 5 5 5 5 5 4 4 4 3
8 9 9 10 11 11 11 11 11 11 12 11 10 10 10 9 8 8 9 10 8 8 8 10 9 7 4 6 7 7 7 7 6 6 6 6 5 5 5 4 4 4 3 3
9 9 10 10 10 9 11 12 12 12 12 10 11 10 8 8 9 9 10 11 10 10 10 10 7 4 5 7 7 7 6 6 5 5 6 5 5 5 4 4 3 3 3 3
8 8 7 8 8 8 9 9 10 10 10 10 9 9 9 9 10 10 9 11 11 10 9 9 8 6 7 8 8 7 7 7 6 5 6 5 5 5 4 3 3 2 2 2
9 8 7 7 7 7 8 9 10 10 10 10 10 9 10 9 10 10 10 9 9 9 9 8 7 7 7 8 7 7 6 5 5 5 5 4 4 3 4 3 2 2 2 2
Wind_Direction
234 222 203 207 208 211 222 231 238 234 240 233 216 209 189 176 166 161 156 153 148 145 138 137 134 132 128 126 125 129 136 137 133 134 129 117 112 106 97 88 83 73 70 64
220 215 217 218 214 213 221 229 237 243 241 227 204 190 184 181 174 171 163 158 152 147 143 140 138 136 132 130 129 129 128 126 124 125 121 114 110 110 105 96 84 76 73 69
212 208 217 223 218 215 218 223 230 235 235 192 193 191 186 180 178 174 165 158 154 149 145 142 139 138 136 129 129 125 119 118 123 124 115 109 110 111 105 98 91 82 75 72
210 197 219 218 207 216 221 223 228 236 212 195 199 183 174 175 173 169 160 155 153 148 143 140 137 136 132 129 127 121 116 113 116 118 113 111 107 102 100 98 91 86 79 75
210 210 213 190 192 202 211 218 219 221 203 169 146 153 158 154 159 158 152 149 146 143 139 135 135 134 132 128 126 120 113 112 112 116 117 116 112 105 98 94 89 86 82 78
216 221 219 192 164 187 212 215 184 197 188 170 175 202 165 138 141 140 138 137 136 135 132 130 130 133 132 129 125 118 114 112 112 116 117 116 112 106 99 96 93 90 81 74
217 221 215 120 148 179 209 196 144 188 185 184 198 11 114 129 132 133 132 132 132 130 127 125 127 129 126 122 118 115 114 113 110 108 110 111 109 107 107 104 97 91 86 79
216 220 203 128 170 193 51 32 89 162 169 161 120 110 121 127 129 131 130 131 131 127 120 120 125 127 122 118 116 114 114 111 108 107 108 111 111 109 109 111 106 100 94 88
220 208 86 114 90 42 8 4 42 147 145 142 135 129 128 129 130 131 132 131 129 126 120 116 117 121 121 119 118 116 113 109 105 100 96 104 111 114 115 115 111 108 104 98
207 159 132 96 52 20 4 1 69 140 144 149 140 136 135 133 131 132 131 131 131 126 121 117 116 115 119 122 120 118 115 112 108 104 99 92 93 96 101 103 107 109 106 104
212 185 173 143 57 24 28 51 119 134 143 145 140 140 138 134 133 131 128 126 127 126 124 121 117 116 122 127 126 121 119 116 113 107 101 88 74 55 65 60 56 80 97 101
227 147 288 31 8 358 43 99 123 134 129 134 142 141 138 134 132 131 130 128 126 125 123 123 122 119 123 130 131 129 127 125 120 117 114 111 104 85 56 60 58 56 54 73
299 325 342 321 340 2 82 105 117 131 135 140 140 137 134 130 131 131 130 130 129 128 125 125 123 118 121 128 130 128 128 128 125 125 125 124 122 117 108 82 67 62 63 70
225 231 246 262 329 98 116 111 111 116 129 135 135 133 131 130 130 129 128 126 123 122 122 121 119 116 122 126 126 126 126 122 124 126 128 127 126 124 123 122 113 96 79 81
238 246 225 205 167 149 139 132 122 122 126 127 132 134 133 131 130 126 123 124 122 120 120 118 115 115 122 125 123 125 126 125 122 125 128 125 124 121 119 117 116 116 117 109
212 189 176 176 170 163 160 152 140 134 133 133 131 129 127 125 123 122 124 128 126 121 120 119 117 121 125 125 123 118 111 112 126 130 127 127 127 125 123 123 122 119 117 118
210 201 192 183 172 168 164 156 148 143 138 136 132 129 126 123 121 120 119 118 115 114 116 118 120 124 125 127 128 126 125 125 135 130 123 124 125 123 123 122 119 114 105 87
224 214 205 190 176 162 152 146 145 144 137 135 134 132 130 129 126 124 123 120 113 107 106 113 120 124 126 129 128 127 127 130 129 122 120 119 121 123 123 119 117 114 114 118
192 182 178 172 161 147 140 137 138 135 132 133 133 132 129 126 125 127 127 124 120 115 111 112 117 121 120 119 122 127 128 128 124 120 119 123 127 124 123 121 120 119 122 120
157 157 152 148 146 140 134 130 127 128 130 131 130 128 124 123 126 127 126 118 112 115 124 125 127 120 121 124 138 128 127 127 125 124 127 132 127 125 124 125 125 124 120 117
138 133 132 132 128 126 127 128 126 126 128 130 130 127 124 124 127 130 127 115 107 115 124 126 123 122 124 131 150 127 127 126 127 129 130 129 127 127 126 128 129 127 126 126
131 131 130 127 124 120 119 122 124 124 123 123 125 126 126 128 128 120 110 112 119 127 135 130 123 109 119 146 134 126 127 126 123 121 120 123 127 129 129 132 135 134 131 127
125 124 125 125 122 119 116 118 121 121 121 124 126 128 128 128 130 128 121 117 126 131 122 110 106 113 139 142 121 125 126 127 128 128 127 128 132 134 134 134 131 130 130 132
117 116 118 120 119 118 118 119 118 118 120 120 121 123 126 124 116 109 111 110 108 115 105 102 112 126 152 121 118 119 122 127 131 132 132 133 131 129 129 131 132 133 131 139
116 117 119 121 121 122 123 122 120 120 120 118 118 119 117 114 115 112 113 116 119 117 112 112 115 131 130 115 117 116 115 113 117 123 124 125 129 129 130 130 130 134 137 143
116 115 115 117 118 123 126 125 124 124 123 123 120 116 112 111 112 113 115 121 120 117 120 126 130 142 120 116 115 116 118 123 127 128 120 125 124 121 121 124 136 141 137 138
119 119 118 116 117 122 125 126 126 128 129 127 122 121 122 122 121 122 122 124 126 125 124 126 126 122 118 118 118 120 121 125 126 126 131 132 130 133 136 146 152 150 159 155
Height
1469 1467 1469 1474 1477 1479 1481 1479 1484 1482 1482 1479 1483 1486 1491 1494 1498 1501 1504 1506 1509 1511 1514 1516 1518 1519 1520 1521 1522 1523 1523 1524 1525 1525 1526 1527 1527 1528 1528 1528 1528 1528 1527 1527
1475 1471 1472 1473 1472 1474 1476 1476 1477 1477 1478 1477 1482 1487 1491 1494 1496 1500 1503 1506 1508 1510 1513 1515 1517 1518 1520 1521 1522 1522 1523 1524 1524 1525 1525 1526 1527 1527 1527 1528 1528 1528 1528 1527
1475 1472 1475 1479 1470 1471 1472 1471 1473 1477 1476 1478 1482 1486 1489 1493 1495 1499 1502 1505 1507 1509 1511 1513 1515 1517 1519 1520 1521 1522 1523 1524 1524 1525 1525 1526 1526 1527 1528 1528 1528 1528 1528 1528
1470 1478 1490 1470 1463 1464 1468 1469 1470 1471 1474 1478 1482 1486 1490 1493 1495 1498 1501 1504 1507 1509 1511 1513 1515 1517 1518 1519 1521 1522 1523 1524 1524 1525 1526 1526 1527 1527 1528 1529 1529 1529 1529 1529
1470 1477 1473 1469 1466 1466 1470 1471 1470 1472 1476 1480 1484 1487 1490 1493 1495 1497 1500 1503 1506 1508 1510 1512 1514 1516 1517 1519 1521 1522 1522 1524 1525 1525 1526 1527 1528 1528 1529 1529 1530 1530 1530 1530
1470 1475 1478 1466 1464 1468 1470 1473 1472 1475 1477 1481 1483 1482 1486 1492 1494 1497 1499 1502 1504 1507 1509 1511 1514 1516 1517 1519 1520 1521 1522 1524 1525 1526 1527 1528 1528 1529 1530 1530 1531 1531 1531 1532
1468 1470 1464 1464 1467 1470 1477 1474 1474 1476 1479 1481 1482 1482 1488 1490 1494 1496 1498 1501 1503 1506 1508 1511 1513 1515 1517 1519 1520 1522 1523 1524 1525 1526 1527 1528 1529 1530 1531 1532 1532 1532 1533 1533
1465 1469 1470 1468 1468 1469 1472 1475 1475 1477 1479 1482 1484 1485 1488 1490 1493 1496 1498 1501 1503 1505 1508 1510 1513 1515 1516 1518 1520 1522 1523 1524 1525 1527 1528 1529 1530 1531 1532 1533 1534 1534 1535 1535
1461 1466 1469 1470 1471 1474 1475 1476 1477 1478 1480 1482 1484 1486 1489 1491 1494 1496 1498 1501 1503 1506 1508 1510 1513 1515 1516 1518 1520 1521 1523 1524 1526 1527 1529 1530 1531 1533 1534 1535 1536 1537 1537 1538
1467 1467 1470 1472 1474 1475 1476 1477 1478 1479 1481 1482 1484 1486 1489 1492 1494 1497 1499 1501 1504 1506 1508 1510 1513 1515 1516 1518 1520 1522 1523 1525 1526 1528 1530 1531 1533 1534 1536 1537 1538 1539 1539 1540
1467 1470 1471 1473 1475 1476 1476 1477 1478 1479 1481 1483 1484 1487 1489 1492 1494 1497 1499 1502 1504 1507 1509 1511 1513 1515 1516 1518 1520 1522 1524 1526 1527 1529 1531 1532 1533 1535 1536 1537 1538 1540 1541 1542
1465 1471 1471 1474 1475 1476 1476 1477 1478 1479 1481 1483 1485 1487 1489 1492 1495 1497 1500 1502 1505 1507 1509 1511 1513 1515 1517 1519 1520 1522 1524 1526 1528 1530 1532 1533 1535 1536 1537 1539 1540 1540 1541 1542
1472 1473 1474 1475 1476 1476 1477 1478 1479 1480 1481 1484 1486 1488 1490 1492 1495 1498 1500 1503 1505 1508 1509 1512 1514 1515 1517 1519 1521 1523 1525 1527 1529 1531 1533 1535 1537 1538 1539 1541 1541 1542 1543 1544
1473 1474 1474 1475 1476 1477 1477 1478 1479 1480 1482 1484 1486 1488 1490 1493 1496 1498 1501 1503 1506 1508 1510 1512 1514 1516 1518 1520 1522 1524 1526 1528 1530 1532 1535 1537 1538 1540 1541 1542 1543 1544 1546 1546
1472 1473 1473 1474 1475 1476 1477 1478 1479 1480 1482 1484 1486 1488 1490 1493 1496 1499 1501 1504 1506 1509 1511 1513 1515 1517 1519 1521 1523 1525 1527 1529 1531 1533 1536 1538 1540 1541 1543 1544 1545 1546 1547 1548
1471 1472 1473 1473 1474 1476 1477 1478 1479 1481 1482 1484 1487 1489 1491 1494 1496 1499 1502 1505 1507 1509 1512 1514 1516 1518 1520 1522 1524 1526 1528 1530 1532 1535 1537 1539 1540 1542 1544 1545 1547 1548 1550 1551
1470 1471 1472 1472 1473 1475 1477 1478 1479 1481 1482 1484 1487 1489 1492 1495 1497 1500 1503 1506 1508 1511 1513 1515 1517 1519 1521 1523 1525 1528 1530 1531 1533 1536 1538 1540 1542 1543 1545 1546 1548 1549 1551 1551
1468 1469 1471 1471 1473 1474 1476 1478 1479 1481 1483 1485 1487 1490 1493 1496 1498 1501 1504 1507 1510 1512 1514 1517 1519 1521 1523 1525 1527 1529 1531 1533 1535 1537 1539 1541 1543 1545 1546 1548 1549 1550 1551 1552
1466 1468 1469 1470 1472 1474 1476 1477 1479 1481 1483 1485 1488 1491 1494 1497 1500 1503 1506 1509 1511 1513 1516 1518 1521 1523 1524 1526 1528 1531 1533 1535 1537 1539 1541 1542 1544 1546 1548 1549 1550 1552 1553 1554
1465 1466 1468 1470 1472 1474 1476 1477 1479 1481 1484 1487 1490 1493 1495 1499 1502 1505 1507 1510 1513 1515 1517 1519 1522 1524 1526 1528 1531 1533 1535 1537 1539 1541 1543 1545 1546 1548 1549 1550 1551 1553 1553 1554
1464 1465 1467 1469 1472 1474 1476 1478 1480 1482 1485 1488 1491 1494 1497 1500 1504 1506 1509 1511 1514 1517 1519 1521 1524 1526 1528 1530 1533 1535 1537 1539 1541 1543 1544 1546 1548 1549 1550 1552 1553 1554 1554 1555
1464 1466 1467 1470 1472 1474 1476 1479 1481 1483 1486 1490 1493 1496 1499 1502 1506 1508 1511 1513 1516 1519 1521 1524 1525 1527 1530 1533 1535 1537 1539 1540 1542 1544 1546 1547 1548 1550 1551 1552 1553 1554 1555 1556
1465 1466 1468 1471 1473 1475 1478 1480 1483 1485 1488 1491 1494 1498 1501 1504 1507 1510 1512 1515 1517 1520 1523 1525 1526 1529 1531 1534 1537 1538 1540 1541 1543 1545 1546 1547 1549 1550 1551 1552 1553 1555 1555 1556
1466 1468 1470 1473 1475 1477 1480 1483 1485 1488 1491 1494 1497 1501 1504 1506 1509 1512 1514 1516 1519 1522 1524 1526 1528 1531 1533 1536 1538 1539 1541 1543 1544 1546 1547 1548 1549 1550 1551 1552 1553 1554 1555 1555
1468 1470 1472 1475 1477 1480 1482 1485 1488 1491 1494 1497 1501 1504 1507 1509 1511 1513 1516 1519 1522 1524 1526 1529 1531 1533 1536 1538 1539 1541 1542 1544 1545 1547 1548 1549 1550 1551 1552 1553 1553 1554 1554 1555
1470 1472 1475 1477 1480 1482 1485 1488 1491 1494 1497 1500 1503 1506 1509 1511 1513 1516 1519 1522 1524 1527 1529 1531 1533 1535 1538 1539 1541 1542 1544 1545 1546 1548 1549 1550 1550 1551 1552 1552 1553 1554 1554 1554
1473 1475 1478 1480 1483 1486 1488 1491 1494 1497 1500 1503 1506 1509 1511 1514 1517 1519 1522 1524 1527 1529 1532 1534 1536 1538 1539 1541 1542 1544 1545 1546 1547 1548 1549 1550 1551 1551 1552 1552 1553 1553 1553 1554